Wolf Creek Observed Data For Previous 48 Hours

Caption
Day and Hour Reservoir Elevation (behind dam)* Tailwater Elevation (below dam)* Average Hourly Discharge*
12/10/2018 1 AM CST 707.32 557.02 15,860
12/10/2018 2 AM CST 707.33 556.73 15,740
12/10/2018 3 AM CST 707.34 556.64 15,740
12/10/2018 4 AM CST 707.35 556.55 15,740
12/10/2018 5 AM CST 707.36 556.46 15,740
12/10/2018 6 AM CST 707.37 556.37 15,740
12/10/2018 7 AM CST 707.38 557.03 19,820
12/10/2018 8 AM CST 707.38 557.68 20,020
12/10/2018 9 AM CST 707.40 558.20 20,020
12/10/2018 10 AM CST 707.40 558.40 20,020
12/10/2018 11 AM CST 707.45 558.65 20,020
12/10/2018 12 PM CST 707.50 557.10 15,860
12/10/2018 1 PM CST 707.50 557.00 15,860
12/10/2018 2 PM CST 707.50 556.90 15,860
12/10/2018 3 PM CST 707.50 556.70 15,860
12/10/2018 4 PM CST 707.50 556.50 15,860
12/10/2018 5 PM CST 707.50 557.10 19,820
12/10/2018 6 PM CST 707.50 557.60 19,820
12/10/2018 7 PM CST 707.52 558.22 20,020
12/10/2018 8 PM CST 707.54 558.44 20,020
12/10/2018 9 PM CST 707.56 558.66 20,020
12/10/2018 10 PM CST 707.58 558.78 20,020
12/10/2018 11 PM CST 707.59 558.89 20,020
12/11/2018 12 AM CST 707.60 557.30 15,860
12/11/2018 1 AM CST 707.62 557.22 15,860
12/11/2018 2 AM CST 707.64 557.14 15,860
12/11/2018 3 AM CST 707.65 557.05 15,740
12/11/2018 4 AM CST 707.66 557.06 15,740
12/11/2018 5 AM CST 707.67 556.97 15,740
12/11/2018 6 AM CST 707.68 556.98 15,740
12/11/2018 7 AM CST 707.68 558.18 19,820
12/11/2018 8 AM CST 707.68 558.28 20,020
12/11/2018 9 AM CST 707.68 558.38 20,020
12/11/2018 10 AM CST 707.68 558.48 20,020
12/11/2018 11 AM CST 707.68 558.58 20,020
12/11/2018 12 PM CST 707.68 558.68 20,020
12/11/2018 1 PM CST 707.68 555.26 15,740
12/11/2018 2 PM CST 707.68 551.85 15,740
12/11/2018 3 PM CST 707.68 548.43 15,740
12/11/2018 4 PM CST 707.68 545.01 15,740
12/11/2018 5 PM CST 707.68 541.60 15,740
12/11/2018 6 PM CST 707.68 538.18 20,020
12/11/2018 7 PM CST 707.69 558.29 20,020
12/11/2018 8 PM CST 707.69 558.39 20,020
12/11/2018 9 PM CST 707.69 558.49 20,020
12/11/2018 10 PM CST 707.70 558.50 20,020
12/11/2018 11 PM CST 707.70 558.00 15,860
12/12/2018 12 AM CST 707.70 557.60 15,860

Elevations are in feet above sea level. Discharges are in cubic feet per second and are reported at the end of the hour.